When you browse on this site, cookies collect data to enhance your experience and personalize the content and advertising you see.
Visit our Privacy Policy to learn more. By continuing to use the site, you agree to this use of cookies and data.
  • en Suisse
  • Liste des pays
  • À 7 jours
  • Température de l'eau
  • Carte météo
  • Widgets météo
  • user-avatar
    Se connecter

    Météo par heure à Macapa

    Ce jour, 10 Avril, Vendredi

    Heure Température Précipitation Vent Pression Humidité
    00:00 +26°C° 0.5 mm 2 m/s 758 mmHg 96%
    01:00 +26°C° 0.2 mm 1 m/s 758 mmHg 96%
    02:00 +26°C° 0.2 mm 1 m/s 758 mmHg 95%
    03:00 +26°C° 0.2 mm 1 m/s 757 mmHg 95%
    04:00 +26°C° 0 mm 1 m/s 757 mmHg 95%
    05:00 +26°C° 0 mm 1 m/s 757 mmHg 96%
    06:00 +26°C° 0 mm 1 m/s 757 mmHg 96%
    07:00 +27°C° 0.5 mm 1 m/s 758 mmHg 92%
    08:00 +28°C° 0.5 mm 1 m/s 759 mmHg 88%
    09:00 +29°C° 0.5 mm 1 m/s 759 mmHg 84%
    10:00 +30°C° 0.9 mm 1 m/s 759 mmHg 82%
    11:00 +30°C° 0.9 mm 1 m/s 759 mmHg 80%
    12:00 +31°C° 0.9 mm 2 m/s 758 mmHg 79%
    13:00 +31°C° 1.9 mm 2 m/s 758 mmHg 80%
    14:00 +31°C° 1.9 mm 3 m/s 757 mmHg 82%
    15:00 +30°C° 1.9 mm 3 m/s 757 mmHg 83%
    16:00 +30°C° 1.9 mm 4 m/s 756 mmHg 86%
    17:00 +29°C° 1.9 mm 4 m/s 756 mmHg 89%
    18:00 +28°C° 1.9 mm 4 m/s 756 mmHg 91%
    19:00 +27°C° 0.2 mm 4 m/s 757 mmHg 92%
    20:00 +27°C° 0.2 mm 3 m/s 757 mmHg 93%
    21:00 +26°C° 0.2 mm 3 m/s 758 mmHg 94%
    22:00 +26°C° 0 mm 2 m/s 758 mmHg 94%
    23:00 +26°C° 0 mm 2 m/s 758 mmHg 94%

    Demain, 11 Avril, Samedi

    Heure Température Précipitation Vent Pression Humidité
    00:00 +26°C° 0 mm 1 m/s 758 mmHg 95%
    01:00 +26°C° 0 mm 1 m/s 758 mmHg 95%
    02:00 +26°C° 0 mm 1 m/s 757 mmHg 95%
    03:00 +24°C° 0 mm 0 m/s 757 mmHg 95%
    04:00 +24°C° 0 mm 0 m/s 757 mmHg 95%
    05:00 +24°C° 0 mm 0 m/s 757 mmHg 95%
    06:00 +24°C° 0 mm 0 m/s 757 mmHg 95%
    07:00 +26°C° 0 mm 1 m/s 758 mmHg 94%
    08:00 +27°C° 0 mm 1 m/s 758 mmHg 92%
    09:00 +27°C° 0 mm 1 m/s 759 mmHg 91%
    10:00 +29°C° 0.1 mm 1 m/s 759 mmHg 85%
    11:00 +30°C° 0.1 mm 1 m/s 759 mmHg 79%
    12:00 +32°C° 0.1 mm 1 m/s 759 mmHg 73%
    13:00 +31°C° 1.6 mm 1 m/s 758 mmHg 78%
    14:00 +30°C° 1.6 mm 1 m/s 757 mmHg 84%
    15:00 +29°C° 1.6 mm 1 m/s 756 mmHg 89%
    16:00 +29°C° 0.3 mm 1 m/s 756 mmHg 89%
    17:00 +29°C° 0.3 mm 2 m/s 756 mmHg 90%
    18:00 +28°C° 0.3 mm 2 m/s 756 mmHg 90%
    19:00 +28°C° 0.2 mm 2 m/s 757 mmHg 92%
    20:00 +27°C° 0.2 mm 2 m/s 757 mmHg 93%
    21:00 +27°C° 0.2 mm 2 m/s 758 mmHg 95%
    22:00 +27°C° 0 mm 2 m/s 758 mmHg 95%
    23:00 +26°C° 0 mm 2 m/s 758 mmHg 95%

    Après-demain, 12 Avril, Dimanche

    Heure Température Précipitation Vent Pression Humidité
    00:00 +26°C° 0 mm 2 m/s 758 mmHg 96%
    01:00 +26°C° 0.3 mm 2 m/s 758 mmHg 96%
    02:00 +26°C° 0.3 mm 2 m/s 757 mmHg 97%
    03:00 +26°C° 0.3 mm 2 m/s 757 mmHg 97%
    04:00 +26°C° 0.8 mm 2 m/s 757 mmHg 97%
    05:00 +26°C° 0.8 mm 2 m/s 757 mmHg 97%
    06:00 +26°C° 0.8 mm 2 m/s 758 mmHg 97%
    07:00 +27°C° 0.5 mm 2 m/s 758 mmHg 94%
    08:00 +27°C° 0.5 mm 2 m/s 759 mmHg 91%
    09:00 +28°C° 0.5 mm 2 m/s 759 mmHg 88%
    10:00 +29°C° 0.9 mm 2 m/s 759 mmHg 86%
    11:00 +30°C° 0.9 mm 2 m/s 759 mmHg 83%
    12:00 +31°C° 0.9 mm 2 m/s 758 mmHg 81%
    13:00 +31°C° 2.4 mm 3 m/s 758 mmHg 82%
    14:00 +31°C° 2.4 mm 3 m/s 757 mmHg 82%
    15:00 +31°C° 2.4 mm 3 m/s 756 mmHg 83%
    16:00 +30°C° 2 mm 3 m/s 756 mmHg 85%
    17:00 +29°C° 2 mm 3 m/s 756 mmHg 88%
    18:00 +28°C° 2 mm 2 m/s 756 mmHg 90%
    19:00 +28°C° 0.7 mm 3 m/s 757 mmHg 91%
    20:00 +27°C° 0.7 mm 3 m/s 758 mmHg 92%
    21:00 +27°C° 0.7 mm 3 m/s 758 mmHg 93%
    22:00 +27°C° 0 mm 3 m/s 758 mmHg 93%
    23:00 +27°C° 0 mm 2 m/s 758 mmHg 94%

    13 Avril, Lundi

    Heure Température Précipitation Vent Pression Humidité
    00:00 +26°C° 0 mm 2 m/s 759 mmHg 94%
    01:00 +26°C° 0.4 mm 2 m/s 758 mmHg 95%
    02:00 +26°C° 0.4 mm 2 m/s 758 mmHg 95%
    03:00 +26°C° 0.4 mm 2 m/s 757 mmHg 96%
    04:00 +26°C° 0.8 mm 2 m/s 757 mmHg 96%
    05:00 +26°C° 0.8 mm 2 m/s 757 mmHg 95%
    06:00 +26°C° 0.8 mm 3 m/s 757 mmHg 95%
    07:00 +26°C° 0.5 mm 3 m/s 758 mmHg 95%
    08:00 +26°C° 0.5 mm 3 m/s 759 mmHg 94%
    09:00 +26°C° 0.5 mm 3 m/s 759 mmHg 93%
    10:00 +27°C° 0.4 mm 3 m/s 759 mmHg 93%
    11:00 +27°C° 0.4 mm 3 m/s 759 mmHg 92%
    12:00 +27°C° 0.4 mm 3 m/s 759 mmHg 92%
    13:00 +27°C° 1.2 mm 3 m/s 758 mmHg 93%
    14:00 +26°C° 1.2 mm 3 m/s 758 mmHg 93%
    15:00 +26°C° 1.2 mm 3 m/s 757 mmHg 94%
    16:00 +26°C° 0.1 mm 3 m/s 757 mmHg 94%
    17:00 +26°C° 0.1 mm 3 m/s 757 mmHg 93%
    18:00 +25°C° 0.1 mm 3 m/s 757 mmHg 93%
    19:00 +25°C° 0 mm 3 m/s 757 mmHg 92%
    20:00 +25°C° 0 mm 3 m/s 758 mmHg 92%
    21:00 +25°C° 0 mm 3 m/s 758 mmHg 92%
    22:00 +25°C° 0 mm 3 m/s 758 mmHg 92%
    23:00 +25°C° 0 mm 3 m/s 758 mmHg 92%

    14 Avril, Mardi

    Heure Température Précipitation Vent Pression Humidité
    00:00 +25°C° 0 mm 3 m/s 758 mmHg 92%
    01:00 +25°C° 0 mm 2 m/s 758 mmHg 93%
    02:00 +25°C° 0 mm 2 m/s 757 mmHg 93%
    03:00 +25°C° 0 mm 1 m/s 757 mmHg 93%
    04:00 +25°C° 0 mm 1 m/s 757 mmHg 94%
    05:00 +25°C° 0 mm 1 m/s 757 mmHg 94%
    06:00 +25°C° 0 mm 1 m/s 757 mmHg 95%
    07:00 +25°C° 0 mm 1 m/s 757 mmHg 94%
    08:00 +26°C° 0 mm 1 m/s 758 mmHg 92%
    09:00 +26°C° 0 mm 1 m/s 759 mmHg 91%
    10:00 +27°C° 0 mm 1 m/s 759 mmHg 87%
    11:00 +28°C° 0 mm 1 m/s 758 mmHg 84%
    12:00 +28°C° 0 mm 1 m/s 758 mmHg 81%
    13:00 +28°C° 0.1 mm 1 m/s 758 mmHg 81%
    14:00 +28°C° 0.1 mm 1 m/s 757 mmHg 82%
    15:00 +28°C° 0.1 mm 1 m/s 756 mmHg 82%
    16:00 +28°C° 0.6 mm 1 m/s 756 mmHg 85%
    17:00 +27°C° 0.6 mm 1 m/s 757 mmHg 89%
    18:00 +26°C° 0.6 mm 1 m/s 757 mmHg 92%
    19:00 +26°C° 0.7 mm 1 m/s 757 mmHg 93%
    20:00 +25°C° 0.7 mm 1 m/s 758 mmHg 94%
    21:00 +25°C° 0.7 mm 1 m/s 758 mmHg 95%
    22:00 +25°C° 0.4 mm 1 m/s 758 mmHg 96%
    23:00 +25°C° 0.4 mm 1 m/s 759 mmHg 96%

    15 Avril, Mercredi

    Heure Température Précipitation Vent Pression Humidité
    00:00 +25°C° 0.4 mm 1 m/s 759 mmHg 96%
    01:00 +25°C° 0 mm 1 m/s 758 mmHg 96%
    02:00 +23°C° 0 mm 0 m/s 758 mmHg 95%
    03:00 +22°C° 0 mm 0 m/s 757 mmHg 95%
    04:00 +22°C° 0 mm 0 m/s 757 mmHg 95%
    05:00 +24°C° 0 mm 1 m/s 757 mmHg 94%
    06:00 +24°C° 0 mm 1 m/s 757 mmHg 94%
    07:00 +25°C° 0 mm 1 m/s 758 mmHg 92%
    08:00 +23°C° 0 mm 0 m/s 759 mmHg 91%
    09:00 +23°C° 0 mm 0 m/s 759 mmHg 90%
    10:00 +24°C° 0 mm 0 m/s 759 mmHg 85%
    11:00 +25°C° 0 mm 0 m/s 759 mmHg 81%
    12:00 +26°C° 0 mm 0 m/s 759 mmHg 76%
    13:00 +27°C° 0 mm 0 m/s 758 mmHg 72%
    14:00 +28°C° 0 mm 0 m/s 757 mmHg 69%
    15:00 +30°C° 0 mm 1 m/s 757 mmHg 65%
    16:00 +30°C° 0 mm 1 m/s 757 mmHg 69%
    17:00 +29°C° 0 mm 1 m/s 757 mmHg 74%
    18:00 +28°C° 0 mm 1 m/s 757 mmHg 79%
    19:00 +27°C° 0 mm 1 m/s 758 mmHg 82%
    20:00 +26°C° 0 mm 1 m/s 758 mmHg 84%
    21:00 +26°C° 0 mm 1 m/s 759 mmHg 87%
    22:00 +26°C° 0 mm 1 m/s 759 mmHg 88%
    23:00 +26°C° 0 mm 1 m/s 759 mmHg 89%
    Voir plus